Regional Weather Roundup
Issued by NWS

Home | Current Version | Previous Version | Graphics & Text | Print | Product List | Glossary On
Versions: 1 2 3 4 5 6 7 8 9 10 11 12 13 14 15 16 17 18 19 20 21 22 23 24 25 26 27 28 29 30 31 32 33 34 35 36 37 38 39 40 41 42 43 44 45 46 47 48 49 50
000
ASUS43 KLOT 222000
RWRIL

ILLINOIS REGIONAL WEATHER ROUNDUP
NATIONAL WEATHER SERVICE CHICAGO/ROMEOVILLE IL
300 PM CDT WED OCT 22 2014

NOTE: "FAIR" INDICATES FEW OR NO CLOUDS BELOW 12,000 FEET WITH NO
SIGNIFICANT WEATHER AND/OR OBSTRUCTIONS TO VISIBILITY.

* THESE STATIONS ARE NOT UNDER NWS QUALITY CONTROL. THEY ALSO MAY NOT
  REPORT WEATHER SUCH AS PRECIPITATION OR FOG.

ILZ001-002-007-009-015-016-024-222100-
NORTHWEST ILLINOIS

CITY           SKY/WX    TMP DP  RH WIND       PRES   REMARKS
MOLINE         SUNNY     61  39  44 S13       30.25F
STERLING*      SUNNY     61  39  44 S6        30.28S
$$

ILZ003-004-008-010-011-017-018-222100-
NORTH CENTRAL ILLINOIS

CITY           SKY/WX    TMP DP  RH WIND       PRES   REMARKS
ROCKFORD       SUNNY     59  37  44 SE8       30.29F
$$

ILZ005-006-012>014-019>023-222100-
NORTHEAST ILLINOIS

CITY           SKY/WX    TMP DP  RH WIND       PRES   REMARKS
CHICAGO-OHARE  MOSUNNY   55  38  52 VRB6      30.30F
CHICAGO-MIDWAY MOSUNNY   55  37  50 NE8       30.31F
AURORA         SUNNY     59  38  45 SE7       30.30F
WAUKEGAN       SUNNY     50  39  66 E7        30.31F
DUPAGE AIRPORT SUNNY     59  38  45 S5        30.29F
WHEELING       SUNNY     56  40  55 E8        30.33S
NORTHERLY ISL    N/A     50  37  61 NE7         N/A
$$

LMZ740>746-222100-
SOUTHERN LAKE MICHIGAN

STATION/POSITION SKY/WX   TEMP    WIND        PRES    VSBY  WAVE
                          AIR SEA DIR/SP/G                  HT/PER
                          (F)     (DEG/KT/KT) (MB)    (MI)  (FT/S)
SOUTHERN BUOY              47 55   80/  2/  4 1028.2F         1/ 5
WAUKEGAN HARBOR            49     110/  6/  7   N/A
HARRISON CRIB              47      80/  5/  6   N/A
BURNHAM HARBOR             49      60/  4/  6   N/A
CALUMET HARBOR             49      50/  5/  8 1025.7F
MICHIGAN CITY              49     350/ 11/ 13   N/A
$$

ILZ025>027-034>036-040-047-049-050-058-095>099-222100-
WEST-CENTRAL ILLINOIS

CITY           SKY/WX    TMP DP  RH WIND       PRES   REMARKS
QUINCY         SUNNY     61  40  45 SE8       30.24F
$$

ILZ028>032-037-038-041>044-048-051>054-059>061-222100-
CENTRAL ILLINOIS

CITY           SKY/WX    TMP DP  RH WIND       PRES   REMARKS
DECATUR        SUNNY     60  39  45 SE9       30.28F
PEORIA         SUNNY     62  39  42 CALM      30.28F
SPRINGFIELD    SUNNY     62  41  46 SE9       30.27F
TAYLORVILLE    NOT AVBL
$$

ILZ033-039-045-046-055>057-062-063-222100-
EAST-CENTRAL ILLINOIS

CITY           SKY/WX    TMP DP  RH WIND       PRES   REMARKS
CHAMPAIGN      SUNNY     59  37  44 MISG      30.28F
MATTOON        SUNNY     59  38  45 VRB6      30.26F
$$

ILZ079-100>102-222100-
SOUTHWEST ILLINOIS

CITY           SKY/WX    TMP DP  RH WIND       PRES   REMARKS
ALTON          SUNNY     63  36  36 E8        30.26F
BELLEVILLE     SUNNY     64  43  47 NE7       30.25F
CAHOKIA*       SUNNY     63  42  46 E6        30.25F
$$

ILZ064>066-069>071-074>076-080>082-084>086-088>090-092>094-222100-
SOUTH-CENTRAL ILLINOIS

CITY           SKY/WX    TMP DP  RH WIND       PRES   REMARKS
CARBONDALE     SUNNY     64  41  42 VRB7      30.25F
MARION         SUNNY     63  43  48 NE9       30.26F
MT. VERNON     SUNNY     61  43  51 NE7       30.27F
$$

ILZ067-068-072-073-078-083-087-091-222100-
SOUTHEAST ILLINOIS

CITY           SKY/WX    TMP DP  RH WIND       PRES   REMARKS
LAWRENCEVILLE  SUNNY     61  40  45 VRB5      30.27F
$$

ABBREVIATIONS USED IN REMARKS
   TC - TEMPERATURE IN CELSIUS
  WCI - WIND CHILL INDEX
   HX - HEAT INDEX
  VSB - VISIBILITY
$$




USA.gov is the U.S. government's official web portal to all federal, state and local government web resources and services.